Date String (YYYY-MM-DD hh:mm:ss) UTC,Instrument flags,Ambient pressure (hPa),Sample flow (lpm),Bypass flow (lpm),Sample temperature (°C),Ambient temperature (°C),ASC tube jacket temperature (°C),LED temperature (°C),Box temperature (°C),Sample RH (%),Span deviation,Mass concentration (μg/m³),Mass concentration (μg/m³),Mass concentration (μg/m³)
DateTimeUTC,F1_M11,P_M11,Q1_M11,Q2_M11,T1_M11,T2_M11,T3_M11,T4_M11,T5_M11,U1_M11,ZSPAN_M11,X0_M11,X2_M11,X1_M11
2023-05-29 21:00:00,,0827.4,4.99,0.00,29.2,26.9,00.0,37.5,30.8,18.4,0000.0,0009.72,0004.53,0003.67
2023-05-29 21:01:00,,0827.3,5.01,0.00,29.2,27.2,00.0,37.5,30.9,18.1,0000.0,0010.08,0004.53,0003.67
2023-05-29 21:02:00,,0827.4,5.01,0.00,29.3,27.4,00.0,37.5,31.0,18.0,0000.0,0010.32,0004.53,0003.67
2023-05-29 21:03:00,,0827.3,5.00,0.00,29.3,27.6,00.0,37.6,31.0,18.0,0000.0,0009.95,0004.55,0003.67
2023-05-29 21:04:00,,0827.4,4.99,0.00,29.3,27.8,00.0,37.6,31.0,16.9,0000.0,0009.91,0004.57,0003.67
2023-05-29 21:05:00,,0827.3,4.99,0.00,29.3,28.0,00.0,37.6,31.1,17.2,0000.0,0010.09,0004.61,0003.67
2023-05-29 21:06:00,,0827.3,4.99,0.00,29.4,28.0,00.0,37.6,31.1,17.0,0000.0,0010.26,0004.63,0003.69
2023-05-29 21:07:00,,0827.2,5.00,0.00,29.4,26.9,00.0,37.6,31.0,16.5,0000.0,0010.37,0004.59,0003.69
2023-05-29 21:08:00,,0827.2,5.00,0.00,29.3,25.9,00.0,37.5,30.8,16.9,0000.0,0010.47,0004.65,0003.69
2023-05-29 21:09:00,,0827.2,5.01,0.00,29.3,26.0,00.0,37.5,30.8,17.5,0000.0,0010.46,0004.69,0003.70
2023-05-29 21:10:00,,0827.2,5.01,0.00,29.2,26.2,00.0,37.5,30.7,17.9,0000.0,0010.88,0004.76,0003.71
2023-05-29 21:11:00,,0827.1,4.99,0.00,29.2,26.5,00.0,37.5,30.8,17.5,0000.0,0011.03,0004.77,0003.72
2023-05-29 21:12:00,,0827.1,4.99,0.00,29.2,26.8,00.0,37.5,30.8,17.7,0000.0,0010.59,0004.76,0003.72
2023-05-29 21:13:00,,0827.2,5.00,0.00,29.2,27.1,00.0,37.5,30.9,17.5,0000.0,0010.29,0004.76,0003.72
2023-05-29 21:14:00,,0827.1,5.00,0.00,29.3,27.4,00.0,37.5,31.0,19.1,0000.0,0010.33,0004.78,0003.73
2023-05-29 21:15:00,,0827.2,5.00,0.00,29.3,27.6,00.0,37.6,31.0,18.9,0000.0,0011.47,0004.78,0003.73
2023-05-29 21:16:00,,0827.2,5.01,0.00,29.3,27.8,00.0,37.6,31.1,19.8,0000.0,0012.00,0004.76,0003.74
2023-05-29 21:17:00,,0827.2,4.99,0.00,29.3,27.9,00.0,37.6,31.1,18.1,0000.0,0012.28,0004.72,0003.73
2023-05-29 21:18:00,,0827.2,4.99,0.00,29.4,27.9,00.0,37.6,31.1,18.2,0000.0,0012.09,0004.73,0003.72
2023-05-29 21:19:00,,0827.1,4.99,0.00,29.4,26.4,00.0,37.5,30.9,17.7,0000.0,0012.17,0004.71,0003.73
2023-05-29 21:20:00,,0827.1,5.00,0.00,29.3,25.1,00.0,37.5,30.7,18.3,0000.0,0012.11,0004.67,0003.73
2023-05-29 21:21:00,,0827.2,5.02,0.00,29.2,25.2,00.0,37.4,30.6,18.7,0000.0,0011.95,0004.65,0003.72
2023-05-29 21:22:00,,0827.2,5.00,0.00,29.1,25.5,00.0,37.4,30.5,18.4,0000.0,0011.81,0004.68,0003.73
2023-05-29 21:23:00,,0827.1,5.00,0.00,29.1,25.8,00.0,37.4,30.6,17.9,0000.0,0012.16,0004.69,0003.75
2023-05-29 21:24:00,,0827.2,5.00,0.00,29.1,26.2,00.0,37.4,30.7,17.8,0000.0,0012.28,0004.72,0003.75
2023-05-29 21:25:00,,0827.2,5.00,0.00,29.1,26.6,00.0,37.4,30.7,17.1,0000.0,0012.13,0004.69,0003.74
2023-05-29 21:26:00,,0827.2,5.00,0.00,29.1,26.9,00.0,37.4,30.8,18.1,0000.0,0011.30,0004.71,0003.75
2023-05-29 21:27:00,,0827.1,5.00,0.00,29.1,27.2,00.0,37.4,30.8,19.6,0000.0,0010.43,0004.72,0003.75
2023-05-29 21:28:00,,0827.2,4.99,0.00,29.2,27.4,00.0,37.5,30.9,20.5,0000.0,0010.04,0004.74,0003.75
2023-05-29 21:29:00,,0827.2,4.99,0.00,29.2,27.6,00.0,37.5,31.0,20.5,0000.0,0010.21,0004.76,0003.76
2023-05-29 21:30:00,,0827.1,5.00,0.00,29.2,27.8,00.0,37.5,31.0,20.0,0000.0,0010.39,0004.72,0003.75
2023-05-29 21:31:00,,0827.2,5.00,0.00,29.3,28.0,00.0,37.5,31.1,18.9,0000.0,0010.59,0004.71,0003.75
2023-05-29 21:32:00,,0827.2,5.01,0.00,29.3,28.1,00.0,37.5,31.1,18.2,0000.0,0010.37,0004.69,0003.76
2023-05-29 21:33:00,,0827.3,5.01,0.00,29.3,28.2,00.0,37.6,31.2,18.6,0000.0,0010.16,0004.65,0003.75
2023-05-29 21:34:00,,0827.2,4.99,0.00,29.4,27.4,00.0,37.5,31.1,18.0,0000.0,0010.38,0004.64,0003.73
2023-05-29 21:35:00,,0827.3,4.99,0.00,29.3,25.6,00.0,37.5,30.8,18.7,0000.0,0010.39,0004.63,0003.72
2023-05-29 21:36:00,,0827.2,5.01,0.00,29.3,25.1,00.0,37.4,30.7,19.1,0000.0,0010.36,0004.61,0003.74
2023-05-29 21:37:00,,0827.2,5.00,0.00,29.2,25.3,00.0,37.4,30.6,18.8,0000.0,0010.50,0004.57,0003.73
2023-05-29 21:38:00,,0827.2,4.99,0.00,29.1,25.7,00.0,37.4,30.6,18.9,0000.0,0010.70,0004.57,0003.74
2023-05-29 21:39:00,,0827.3,5.01,0.00,29.1,26.0,00.0,37.4,30.6,18.9,0000.0,0010.69,0004.58,0003.74
2023-05-29 21:40:00,,0827.2,5.00,0.00,29.1,26.4,00.0,37.4,30.7,20.2,0000.0,0010.63,0004.63,0003.75
2023-05-29 21:41:00,,0827.3,5.00,0.00,29.1,26.8,00.0,37.4,30.8,21.3,0000.0,0010.25,0004.66,0003.76
2023-05-29 21:42:00,,0827.2,5.00,0.00,29.1,27.1,00.0,37.4,30.8,22.1,0000.0,0009.75,0004.68,0003.78
2023-05-29 21:43:00,,0827.2,5.00,0.00,29.1,27.3,00.0,37.4,30.9,21.7,0000.0,0010.16,0004.71,0003.79
2023-05-29 21:44:00,,0827.2,5.00,0.00,29.2,27.5,00.0,37.5,30.9,22.8,0000.0,0010.74,0004.75,0003.81
2023-05-29 21:45:00,,0827.2,5.00,0.00,29.2,27.7,00.0,37.5,31.0,23.9,0000.0,0010.83,0004.78,0003.85
2023-05-29 21:46:00,,0827.2,5.00,0.00,29.2,27.9,00.0,37.5,31.1,24.7,0000.0,0010.76,0004.80,0003.86
2023-05-29 21:47:00,,0827.2,5.00,0.00,29.3,28.0,00.0,37.5,31.1,24.0,0000.0,0011.23,0004.88,0003.89
2023-05-29 21:48:00,,0827.2,5.00,0.00,29.3,28.2,00.0,37.5,31.1,24.2,0000.0,0011.72,0004.97,0003.92
2023-05-29 21:49:00,,0827.1,4.99,0.00,29.4,27.2,00.0,37.5,31.0,22.8,0000.0,0011.58,0005.01,0003.94
2023-05-29 21:50:00,,0827.2,5.01,0.00,29.3,25.5,00.0,37.4,30.8,23.8,0000.0,0012.00,0005.02,0003.95
2023-05-29 21:51:00,,0827.1,5.00,0.00,29.2,25.0,00.0,37.4,30.7,23.1,0000.0,0012.78,0005.03,0003.97
2023-05-29 21:52:00,,0827.1,5.02,0.00,29.2,25.3,00.0,37.3,30.6,23.0,0000.0,0012.81,0005.00,0003.97
2023-05-29 21:53:00,,0827.1,5.00,0.00,29.1,25.6,00.0,37.4,30.6,24.0,0000.0,0013.97,0005.00,0003.97
2023-05-29 21:54:00,,0827.1,5.00,0.00,29.1,26.0,00.0,37.4,30.6,22.6,0000.0,0014.59,0005.00,0003.97
2023-05-29 21:55:00,,0827.1,4.99,0.00,29.1,26.4,00.0,37.4,30.7,23.2,0000.0,0014.66,0005.01,0003.98
2023-05-29 21:56:00,,0827.2,5.01,0.00,29.1,26.7,00.0,37.4,30.8,23.1,0000.0,0014.64,0005.00,0003.98
2023-05-29 21:57:00,,0827.2,4.99,0.00,29.1,27.0,00.0,37.4,30.8,22.0,0000.0,0014.47,0004.98,0003.98
2023-05-29 21:58:00,,0827.2,5.00,0.00,29.1,27.3,00.0,37.4,30.9,23.1,0000.0,0014.06,0004.93,0003.99
2023-05-29 21:59:00,,0827.1,5.01,0.00,29.2,27.5,00.0,37.4,30.9,24.8,0000.0,0013.40,0004.90,0003.98
